This demonstration page uses our WeatherBlox Daily Observations layout. Learn more.

Left ArrowRight Arrow

Hourly Observations for January 28, 2022

Temp ( °F °C ) Dew Point ( °F °C ) Humidity (%) Winds ( mph kmh ) Pressure ( in mb ) Visibility ( mi km ) Precip ( " mm )
12:53 am 00:53 Clear 32 0 27 -2.8 82 82 W 3 6 30.19 1023 10 16 0.00 0.00
1:53 am 01:53 Clear 33 0.6 31 -0.6 92 92 Calm 30.17 1022 10 16 0.00 0.00
2:53 am 02:53 Partly Cloudy 33 0.6 29 -1.7 85 85 Calm 30.16 1021 10 16 0.00 0.00
3:53 am 03:53 Cloudy 33 0.6 31 -0.6 92 92 Calm 30.14 1021 10 16 0.00 0.00
4:53 am 04:53 Mostly Clear 32 0 29 -1.7 88 88 Calm 30.11 1020 10 16 0.00 0.00
5:53 am 05:53 Clear 32 0 30 -1.1 92 92 Calm 30.11 1020 10 16 0.00 0.00
6:53 am 06:53 Clear 32 0 30 -1.1 92 92 WNW 3 6 30.12 1020 10 16 0.00 0.00
7:53 am 07:53 Mostly Sunny 33 0.6 31 -0.6 92 92 W 3 6 30.12 1020 10 16 0.00 0.00
8:53 am 08:53 Mostly Sunny 35 1.7 32 0 89 89 W 3 6 30.12 1020 10 16 0.00 0.00
9:53 am 09:53 Sunny 40 4.4 32 0 73 73 Calm 30.09 1019 10 16 0.00 0.00
10:53 am 10:53 Mostly Sunny 45 7.2 29 -1.7 54 54 Calm 30.09 1019 10 16 0.00 0.00
11:53 am 11:53 Mostly Cloudy 49 9.4 26 -3.3 41 41 Calm 30.07 1018 10 16 0.00 0.00
12:53 pm 12:53 Mostly Cloudy 50 10 24 -4.4 36 36 Calm 30.01 1016 10 16 0.00 0.00
1:53 pm 13:53 Cloudy 52 11.1 26 -3.3 37 37 WSW 7 11 29.98 1015 10 16 0.00 0.00
2:53 pm 14:53 Sunny 53 11.7 27 -2.8 37 37 W 7 11 29.94 1014 10 16 0.00 0.00
3:53 pm 15:53 Cloudy 53 11.7 29 -1.7 40 40 WNW 13 20 29.94 1014 10 16 0.00 0.00
4:53 pm 16:53 Mostly Cloudy 53 11.7 30 -1.1 41 41 WNW 12 19 29.92 1013 10 16 0.00 0.00
5:53 pm 17:53 Mostly Cloudy 50 10 25 -3.9 38 38 NW 18 30 29.94 1014 10 16 0.00 0.00
6:53 pm 18:53 Partly Cloudy 46 7.8 26 -3.3 46 46 NW 21 33 29.98 1015 10 16 0.00 0.00
7:53 pm 19:53 Clear 42 5.6 22 -5.6 45 45 NNW 16 26 30.03 1017 10 16 0.00 0.00
8:53 pm 20:53 Clear 41 5 21 -6.1 45 45 NW 12 19 30.03 1017 10 16 0.00 0.00
9:53 pm 21:53 Clear 39 3.9 22 -5.6 50 50 NW 8 13 30.04 1017 10 16 0.00 0.00
10:53 pm 22:53 Clear 37 2.8 22 -5.6 54 54 NW 10 17 30.04 1017 10 16 0.00 0.00
11:53 pm 23:53 Clear 38 3.3 22 -5.6 52 52 NW 14 22 30.04 1017 10 16 0.00 0.00

Powered by AerisWeather